User: anonymous
Location: Unspecified
(0.0000°N, 0.0000°E)
Time: 01:42:21
(UTC+02:00)
Language:

Cosmos 1943 Rocket - Orbit

View from above orbital plane
View from above orbital plane
View from above satellite
View from above satellite

Ground track
Ground track

The orbit data is extracted from the following two-line orbital elements,

1 19120U 88039B   14244.73616030  .00000122  00000-0  81055-4 0  1352
2 19120 071.0165 318.7922 0023904 308.2065 194.5111 14.19039338361765
Epoch (UTC): 01 September 2014 17:40:04
Eccentricity: 0.0023904
inclination: 71.0165°
perigee height: 811 km
apogee height: 846 km
right ascension of ascending node: 318.7922°
argument of perigee: 308.2065°
revolutions per day: 14.19039338
mean anomaly at epoch: 194.5111°
orbit number at epoch: 36176

The dashed part of the orbit path shows where the satellite is in the earth's shadow,  

DLR